• In Latvia
  • List of Countries
  • For 7 days
  • Water Temperature
  • Satellite Maps
  • Weather Map
  • Weather Widgets
  • user-avatar
    Login

    Hourly Weather Akhaltsikhe

    Today, 25 September, Tuesday

    Time Temperature Precipitation Wind Pressure Humidity
    00:00 +14°C° 0 mm 2 mps 651 mmHg 76%
    01:00 +14°C° 0 mm 2 mps 651 mmHg 75%
    02:00 +14°C° 0 mm 2 mps 651 mmHg 74%
    03:00 +13°C° 0 mm 3 mps 651 mmHg 75%
    04:00 +14°C° 0 mm 2 mps 650 mmHg 75%
    05:00 +14°C° 0 mm 2 mps 650 mmHg 74%
    06:00 +13°C° 0 mm 2 mps 650 mmHg 74%
    07:00 +16°C° 0 mm 2 mps 651 mmHg 66%
    08:00 +18°C° 0 mm 2 mps 651 mmHg 57%
    09:00 +21°C° 0 mm 2 mps 652 mmHg 48%
    10:00 +24°C° 0 mm 2 mps 652 mmHg 44%
    11:00 +25°C° 0 mm 2 mps 652 mmHg 39%
    12:00 +27°C° 0 mm 2 mps 653 mmHg 35%
    13:00 +26°C° 0 mm 3 mps 653 mmHg 36%
    14:00 +26°C° 0 mm 3 mps 652 mmHg 38%
    15:00 +25°C° 0 mm 3 mps 652 mmHg 40%
    16:00 +22°C° 0 mm 3 mps 652 mmHg 51%
    17:00 +19°C° 0 mm 2 mps 651 mmHg 62%
    18:00 +17°C° 0 mm 2 mps 651 mmHg 73%
    19:00 +16°C° 0 mm 2 mps 651 mmHg 79%
    20:00 +15°C° 0 mm 1 mps 651 mmHg 85%
    21:00 +14°C° 0 mm 1 mps 651 mmHg 92%
    22:00 +14°C° 0.1 mm 1 mps 651 mmHg 93%
    23:00 +14°C° 0.1 mm 1 mps 651 mmHg 94%

    Tomorrow, 26 September, Wednesday

    Time Temperature Precipitation Wind Pressure Humidity
    00:00 +13°C° 0.1 mm 1 mps 651 mmHg 95%
    01:00 +13°C° 0.3 mm 1 mps 651 mmHg 95%
    02:00 +13°C° 0.3 mm 1 mps 651 mmHg 96%
    03:00 +13°C° 0.3 mm 1 mps 651 mmHg 96%
    04:00 +13°C° 0.4 mm 1 mps 651 mmHg 96%
    05:00 +13°C° 0.4 mm 1 mps 651 mmHg 97%
    06:00 +13°C° 0.4 mm 1 mps 652 mmHg 97%
    07:00 +13°C° 0.4 mm 1 mps 652 mmHg 95%
    08:00 +13°C° 0.4 mm 2 mps 652 mmHg 94%
    09:00 +13°C° 0.4 mm 2 mps 652 mmHg 92%
    10:00 +14°C° 0.1 mm 2 mps 652 mmHg 91%
    11:00 +14°C° 0.1 mm 2 mps 652 mmHg 89%
    12:00 +14°C° 0.1 mm 2 mps 652 mmHg 87%
    13:00 +14°C° 0 mm 2 mps 652 mmHg 86%
    14:00 +14°C° 0 mm 2 mps 652 mmHg 84%
    15:00 +14°C° 0 mm 2 mps 652 mmHg 82%
    16:00 +14°C° 0.1 mm 2 mps 652 mmHg 85%
    17:00 +13°C° 0.1 mm 2 mps 652 mmHg 88%
    18:00 +12°C° 0.1 mm 2 mps 653 mmHg 90%
    19:00 +12°C° 0 mm 1 mps 653 mmHg 91%
    20:00 +12°C° 0 mm 1 mps 653 mmHg 92%
    21:00 +11°C° 0 mm 1 mps 654 mmHg 93%
    22:00 +11°C° 0 mm 1 mps 654 mmHg 94%
    23:00 +11°C° 0 mm 1 mps 653 mmHg 95%

    Day after tomorrow, 27 September, Thursday

    Time Temperature Precipitation Wind Pressure Humidity
    00:00 +11°C° 0 mm 1 mps 653 mmHg 95%
    01:00 +10°C° 0.1 mm 1 mps 653 mmHg 95%
    02:00 +10°C° 0.1 mm 1 mps 653 mmHg 95%
    03:00 +10°C° 0.1 mm 1 mps 653 mmHg 95%
    04:00 +10°C° 0 mm 1 mps 653 mmHg 95%
    05:00 +10°C° 0 mm 1 mps 653 mmHg 95%
    06:00 +10°C° 0 mm 1 mps 653 mmHg 95%
    07:00 +11°C° 0 mm 1 mps 654 mmHg 90%
    08:00 +12°C° 0 mm 1 mps 654 mmHg 84%
    09:00 +13°C° 0 mm 1 mps 655 mmHg 79%
    10:00 +15°C° 0 mm 1 mps 655 mmHg 74%
    11:00 +16°C° 0 mm 1 mps 655 mmHg 68%
    12:00 +17°C° 0 mm 2 mps 655 mmHg 63%
    13:00 +17°C° 0 mm 2 mps 655 mmHg 65%
    14:00 +16°C° 0 mm 2 mps 655 mmHg 67%
    15:00 +16°C° 0 mm 2 mps 655 mmHg 69%
    16:00 +15°C° 0 mm 2 mps 655 mmHg 75%
    17:00 +14°C° 0 mm 2 mps 654 mmHg 81%
    18:00 +12°C° 0 mm 1 mps 654 mmHg 88%
    19:00 +12°C° 0 mm 1 mps 654 mmHg 90%
    20:00 +11°C° 0 mm 1 mps 655 mmHg 92%
    21:00 +11°C° 0 mm 1 mps 655 mmHg 95%
    22:00 +11°C° 0 mm 1 mps 655 mmHg 95%
    23:00 +11°C° 0 mm 1 mps 655 mmHg 95%

    28 September, Friday

    Time Temperature Precipitation Wind Pressure Humidity
    00:00 +10°C° 0 mm 1 mps 654 mmHg 95%
    01:00 +9°C° 0 mm 0 mps 654 mmHg 95%
    02:00 +9°C° 0 mm 0 mps 654 mmHg 94%
    03:00 +9°C° 0 mm 0 mps 654 mmHg 93%
    04:00 +10°C° 0 mm 1 mps 654 mmHg 93%
    05:00 +10°C° 0 mm 1 mps 653 mmHg 92%
    06:00 +9°C° 0 mm 1 mps 653 mmHg 91%
    07:00 +12°C° 0 mm 1 mps 654 mmHg 82%
    08:00 +14°C° 0 mm 1 mps 655 mmHg 72%
    09:00 +18°C° 0 mm 1 mps 655 mmHg 63%
    10:00 +19°C° 0 mm 1 mps 655 mmHg 58%
    11:00 +21°C° 0 mm 1 mps 655 mmHg 54%
    12:00 +22°C° 0 mm 1 mps 656 mmHg 49%
    13:00 +22°C° 0 mm 1 mps 655 mmHg 50%
    14:00 +21°C° 0 mm 2 mps 655 mmHg 51%
    15:00 +20°C° 0 mm 2 mps 654 mmHg 52%
    16:00 +19°C° 0 mm 2 mps 654 mmHg 61%
    17:00 +18°C° 0 mm 1 mps 653 mmHg 70%
    18:00 +15°C° 0 mm 1 mps 653 mmHg 79%
    19:00 +14°C° 0.1 mm 1 mps 653 mmHg 82%
    20:00 +14°C° 0.1 mm 1 mps 653 mmHg 85%
    21:00 +13°C° 0.1 mm 1 mps 653 mmHg 88%
    22:00 +13°C° 0.1 mm 1 mps 653 mmHg 88%
    23:00 +12°C° 0.1 mm 1 mps 652 mmHg 89%

    29 September, Saturday

    Time Temperature Precipitation Wind Pressure Humidity
    00:00 +12°C° 0.1 mm 1 mps 652 mmHg 89%
    01:00 +12°C° 0 mm 1 mps 652 mmHg 89%
    02:00 +12°C° 0 mm 1 mps 652 mmHg 88%
    03:00 +11°C° 0 mm 1 mps 651 mmHg 88%
    04:00 +11°C° 0 mm 1 mps 651 mmHg 87%
    05:00 +11°C° 0 mm 1 mps 651 mmHg 87%
    06:00 +11°C° 0 mm 1 mps 651 mmHg 86%
    07:00 +14°C° 0 mm 1 mps 652 mmHg 77%
    08:00 +16°C° 0 mm 1 mps 652 mmHg 68%
    09:00 +19°C° 0 mm 1 mps 653 mmHg 59%
    10:00 +21°C° 0 mm 1 mps 653 mmHg 54%
    11:00 +22°C° 0 mm 1 mps 653 mmHg 49%
    12:00 +24°C° 0 mm 2 mps 653 mmHg 44%
    13:00 +24°C° 0.1 mm 2 mps 652 mmHg 45%
    14:00 +23°C° 0.1 mm 2 mps 652 mmHg 47%
    15:00 +23°C° 0.1 mm 2 mps 652 mmHg 48%
    16:00 +20°C° 0.3 mm 2 mps 651 mmHg 58%
    17:00 +18°C° 0.3 mm 2 mps 651 mmHg 67%
    18:00 +16°C° 0.3 mm 1 mps 650 mmHg 77%
    19:00 +15°C° 0.2 mm 1 mps 650 mmHg 80%
    20:00 +15°C° 0.2 mm 1 mps 651 mmHg 82%
    21:00 +14°C° 0.2 mm 1 mps 651 mmHg 85%
    22:00 +14°C° 0 mm 1 mps 651 mmHg 85%
    23:00 +14°C° 0 mm 1 mps 651 mmHg 84%

    30 September, Sunday

    Time Temperature Precipitation Wind Pressure Humidity
    00:00 +13°C° 0 mm 1 mps 651 mmHg 84%
    01:00 +13°C° 0 mm 1 mps 651 mmHg 84%
    02:00 +13°C° 0 mm 1 mps 651 mmHg 83%
    03:00 +13°C° 0 mm 1 mps 651 mmHg 83%
    04:00 +12°C° 0 mm 1 mps 651 mmHg 83%
    05:00 +12°C° 0 mm 1 mps 651 mmHg 82%
    06:00 +12°C° 0 mm 1 mps 651 mmHg 82%
    07:00 +14°C° 0 mm 1 mps 652 mmHg 73%
    08:00 +18°C° 0 mm 1 mps 652 mmHg 63%
    09:00 +20°C° 0 mm 1 mps 653 mmHg 54%
    10:00 +21°C° 0 mm 1 mps 653 mmHg 50%
    11:00 +22°C° 0 mm 1 mps 653 mmHg 45%
    12:00 +23°C° 0 mm 2 mps 653 mmHg 41%
    13:00 +23°C° 0 mm 2 mps 653 mmHg 42%
    14:00 +23°C° 0 mm 2 mps 653 mmHg 43%
    15:00 +23°C° 0 mm 2 mps 652 mmHg 44%
    16:00 +20°C° 0.1 mm 2 mps 652 mmHg 54%
    17:00 +18°C° 0.1 mm 1 mps 652 mmHg 63%
    18:00 +15°C° 0.1 mm 1 mps 651 mmHg 72%
    19:00 +15°C° 0.1 mm 1 mps 652 mmHg 73%
    20:00 +14°C° 0.1 mm 1 mps 652 mmHg 75%
    21:00 +14°C° 0.1 mm 1 mps 652 mmHg 76%
    22:00 +14°C° 0 mm 1 mps 652 mmHg 76%
    23:00 +14°C° 0 mm 1 mps 652 mmHg 76%
    Show more